Darstellungsparameter: Aktuell verwendete Einstellungen:
Skalierung der Graphiken ... ?
xyx+y,   Skalierungsfaktor:      Skalierung: Modus: x, Faktor: 1
Darstellungszeitraum ... ?
Vom - - bis: - -   Zeitraum: 06.08.2019 - 06.08.2019
Min/Max/Avg-Anzeige ... ?
Zeige MMA aktuell
Zeige MMA Monat
Zeige MMA alles
Zeige --A aktuell
Zeige --A Monat
Zeige --A alles
Keine MMA-Anzeige
MMA:
Keine MMA-Graphiken
MMA-Basis: 06.08.2019 - 06.08.2019
Quicknavigation für Darstellung... ?
Tage:      1T, 2T, 3T, 5T -1T -2T -3T -5T +1T +2T +3T +5T
Wochen: 1W, 2W, 3W -1W -2W -3W +1W +2W +3W
Monate: 1M, 3M, 6M -1M -3M -6M +1M +3M +6M
Jahre:    1J, 3J, 5J, 10J -1J -3J -5J -10J +1J +3J +5J +10J
Nutze für die Darstellung ... ?
Originaldaten oder Mittelwerte auf ...
Stundenbasis Tagesbasis Wochenbasis
Monatsbasis Jahresbasis      Datenbasis: Original-Daten
Darstellen als:
Statistik (Auto) Statistik J:M      Darstellung:
Zur Graphik,    zurück zur Übersicht aller Sensoren.
 
Tabellarische Datenbersicht: ?
 
Sensor: Nr:Datum:Temp:Feuchte:Taupunkt:
Aussen-T/F 1 06-08-2019 00:00:00 18.4 C 77 % 14.3 C
2 06-08-2019 00:05:00 18.3 C 77 % 14.2 C
3 06-08-2019 00:10:00 18.2 C 77 % 14.1 C
4 06-08-2019 00:15:00 18.2 C 77 % 14.1 C
5 06-08-2019 00:20:00 18.1 C 78 % 14.21 C
6 06-08-2019 00:25:00 18.1 C 78 % 14.21 C
7 06-08-2019 00:30:00 18 C 79 % 14.31 C
8 06-08-2019 00:35:00 17.9 C 79 % 14.21 C
9 06-08-2019 00:40:00 17.8 C 78 % 13.91 C
10 06-08-2019 00:45:00 17.8 C 79 % 14.11 C
11 06-08-2019 00:50:00 17.7 C 80 % 14.21 C
12 06-08-2019 00:55:00 17.6 C 80 % 14.11 C
13 06-08-2019 01:00:00 17.4 C 80 % 13.92 C
14 06-08-2019 01:05:00 17.3 C 81 % 14.01 C
15 06-08-2019 01:10:00 17.3 C 81 % 14.01 C
16 06-08-2019 01:15:00 17.2 C 81 % 13.91 C
17 06-08-2019 01:20:00 17.2 C 81 % 13.91 C
18 06-08-2019 01:25:00 17.1 C 81 % 13.82 C
19 06-08-2019 01:30:00 17.1 C 82 % 14 C
20 06-08-2019 01:35:00 17.1 C 82 % 14 C
21 06-08-2019 01:40:00 16.9 C 82 % 13.81 C
22 06-08-2019 01:45:00 16.9 C 82 % 13.81 C
23 06-08-2019 01:50:00 16.9 C 82 % 13.81 C
24 06-08-2019 01:55:00 16.9 C 82 % 13.81 C
25 06-08-2019 02:00:00 16.8 C 82 % 13.71 C
Sensor: Nr:Datum:Temp:Feuchte:Taupunkt:
Aussen-T/F 26 06-08-2019 02:05:00 16.7 C 83 % 13.8 C
27 06-08-2019 02:10:00 16.7 C 83 % 13.8 C
28 06-08-2019 02:15:00 16.7 C 83 % 13.8 C
29 06-08-2019 02:20:00 16.7 C 84 % 13.98 C
30 06-08-2019 02:25:00 16.8 C 84 % 14.08 C
31 06-08-2019 02:30:00 17 C 83 % 14.09 C
32 06-08-2019 02:35:00 17.2 C 83 % 14.29 C
33 06-08-2019 02:40:00 17.3 C 82 % 14.2 C
34 06-08-2019 02:45:00 17.4 C 82 % 14.3 C
35 06-08-2019 02:50:00 17.4 C 83 % 14.48 C
36 06-08-2019 02:55:00 17.4 C 83 % 14.48 C
37 06-08-2019 03:00:00 17.4 C 83 % 14.48 C
38 06-08-2019 03:05:00 17.4 C 83 % 14.48 C
39 06-08-2019 03:10:00 17.5 C 83 % 14.58 C
40 06-08-2019 03:15:00 17.5 C 83 % 14.58 C
41 06-08-2019 03:20:00 17.5 C 83 % 14.58 C
42 06-08-2019 03:25:00 17.5 C 83 % 14.58 C
43 06-08-2019 03:30:00 17.4 C 83 % 14.48 C
44 06-08-2019 03:35:00 17.4 C 83 % 14.48 C
45 06-08-2019 03:40:00 17.4 C 84 % 14.67 C
46 06-08-2019 03:45:00 17.4 C 83 % 14.48 C
47 06-08-2019 03:50:00 17.5 C 83 % 14.58 C
48 06-08-2019 03:55:00 17.6 C 83 % 14.68 C
49 06-08-2019 04:00:00 17.6 C 83 % 14.68 C
50 06-08-2019 04:05:00 17.5 C 83 % 14.58 C
Sensor: Nr:Datum:Temp:Feuchte:Taupunkt:
Aussen-T/F 51 06-08-2019 04:10:00 17.5 C 83 % 14.58 C
52 06-08-2019 04:15:00 17.4 C 84 % 14.67 C
53 06-08-2019 04:20:00 17.3 C 84 % 14.57 C
54 06-08-2019 04:25:00 17.3 C 83 % 14.39 C
55 06-08-2019 04:30:00 17.2 C 83 % 14.29 C
56 06-08-2019 04:35:00 17.1 C 84 % 14.38 C
57 06-08-2019 04:40:00 16.9 C 84 % 14.18 C
58 06-08-2019 04:45:00 16.9 C 85 % 14.36 C
59 06-08-2019 04:50:00 16.9 C 85 % 14.36 C
60 06-08-2019 04:55:00 16.9 C 85 % 14.36 C
61 06-08-2019 05:00:00 16.8 C 85 % 14.26 C
62 06-08-2019 05:05:00 16.8 C 85 % 14.26 C
63 06-08-2019 05:10:00 16.7 C 85 % 14.17 C
64 06-08-2019 05:15:00 16.6 C 85 % 14.07 C
65 06-08-2019 05:20:00 16.6 C 86 % 14.25 C
66 06-08-2019 05:25:00 16.6 C 86 % 14.25 C
67 06-08-2019 05:30:00 16.6 C 86 % 14.25 C
68 06-08-2019 05:35:00 16.6 C 86 % 14.25 C
69 06-08-2019 05:40:00 16.6 C 86 % 14.25 C
70 06-08-2019 05:45:00 16.5 C 86 % 14.15 C
71 06-08-2019 05:50:00 16.5 C 86 % 14.15 C
72 06-08-2019 05:55:00 16.4 C 86 % 14.05 C
73 06-08-2019 06:00:00 16.3 C 86 % 13.95 C
74 06-08-2019 06:05:00 16.3 C 87 % 14.13 C
75 06-08-2019 06:10:00 16.3 C 87 % 14.13 C
Sensor: Nr:Datum:Temp:Feuchte:Taupunkt:
Aussen-T/F 76 06-08-2019 06:15:00 16.4 C 87 % 14.23 C
77 06-08-2019 06:20:00 16.5 C 87 % 14.33 C
78 06-08-2019 06:25:00 16.6 C 87 % 14.43 C
79 06-08-2019 06:30:00 16.7 C 87 % 14.53 C
80 06-08-2019 06:35:00 16.8 C 87 % 14.62 C
81 06-08-2019 06:40:00 16.9 C 86 % 14.54 C
82 06-08-2019 06:45:00 17 C 86 % 14.64 C
83 06-08-2019 06:50:00 17.1 C 86 % 14.74 C
84 06-08-2019 06:55:00 17.1 C 86 % 14.74 C
85 06-08-2019 07:00:00 17.2 C 86 % 14.84 C
86 06-08-2019 07:05:00 17.3 C 85 % 14.76 C
87 06-08-2019 07:10:00 17.5 C 84 % 14.77 C
88 06-08-2019 07:15:00 17.7 C 83 % 14.78 C
89 06-08-2019 07:20:00 17.8 C 83 % 14.88 C
90 06-08-2019 07:25:00 17.8 C 83 % 14.88 C
91 06-08-2019 07:30:00 17.9 C 83 % 14.97 C
92 06-08-2019 07:35:00 18 C 83 % 15.07 C
93 06-08-2019 07:40:00 18.1 C 83 % 15.17 C
94 06-08-2019 07:45:00 18.2 C 82 % 15.08 C
95 06-08-2019 07:50:00 18.2 C 82 % 15.08 C
96 06-08-2019 07:55:00 18.3 C 82 % 15.17 C
97 06-08-2019 08:00:00 18.3 C 82 % 15.17 C
98 06-08-2019 08:05:00 18.4 C 82 % 15.27 C
99 06-08-2019 08:10:00 18.4 C 81 % 15.08 C
100 06-08-2019 08:15:00 18.5 C 81 % 15.18 C
Sensor: Nr:Datum:Temp:Feuchte:Taupunkt:
Aussen-T/F 101 06-08-2019 08:20:00 18.6 C 81 % 15.28 C
102 06-08-2019 08:25:00 18.6 C 81 % 15.28 C
103 06-08-2019 08:30:00 18.7 C 81 % 15.37 C
104 06-08-2019 08:35:00 18.8 C 81 % 15.47 C
105 06-08-2019 08:40:00 18.8 C 81 % 15.47 C
106 06-08-2019 08:45:00 18.9 C 81 % 15.57 C
107 06-08-2019 08:50:00 19 C 81 % 15.67 C
108 06-08-2019 08:55:00 19.1 C 80 % 15.57 C
109 06-08-2019 09:00:00 19.3 C 79 % 15.57 C
110 06-08-2019 09:05:00 19.4 C 79 % 15.66 C
111 06-08-2019 09:10:00 19.7 C 78 % 15.76 C
112 06-08-2019 09:15:00 19.8 C 77 % 15.65 C
113 06-08-2019 09:20:00 19.9 C 76 % 15.54 C
114 06-08-2019 09:25:00 20.1 C 77 % 15.94 C
115 06-08-2019 09:30:00 20.1 C 77 % 15.94 C
116 06-08-2019 09:35:00 20.3 C 76 % 15.93 C
117 06-08-2019 09:40:00 20.4 C 76 % 16.03 C
118 06-08-2019 09:45:00 20.6 C 75 % 16.01 C
119 06-08-2019 09:50:00 20.8 C 74 % 16 C
120 06-08-2019 09:55:00 20.8 C 74 % 16 C
121 06-08-2019 10:00:00 20.8 C 73 % 15.78 C
122 06-08-2019 10:05:00 20.7 C 77 % 16.52 C
123 06-08-2019 10:10:00 20.6 C 80 % 17.03 C
124 06-08-2019 10:15:00 20.4 C 81 % 17.03 C
125 06-08-2019 10:20:00 20.2 C 83 % 17.22 C
Sensor: Nr:Datum:Temp:Feuchte:Taupunkt:
Aussen-T/F 126 06-08-2019 10:25:00 19.9 C 84 % 17.12 C
127 06-08-2019 10:30:00 19.7 C 86 % 17.29 C
128 06-08-2019 10:35:00 19.6 C 87 % 17.38 C
129 06-08-2019 10:40:00 19.4 C 88 % 17.36 C
130 06-08-2019 10:45:00 19.3 C 88 % 17.26 C
131 06-08-2019 10:50:00 19.2 C 89 % 17.34 C
132 06-08-2019 10:55:00 19.2 C 89 % 17.34 C
133 06-08-2019 11:00:00 19.2 C 89 % 17.34 C
134 06-08-2019 11:05:00 19.2 C 89 % 17.34 C
135 06-08-2019 11:10:00 19.2 C 89 % 17.34 C
136 06-08-2019 11:15:00 19.3 C 90 % 17.62 C
137 06-08-2019 11:20:00 19.4 C 90 % 17.72 C
138 06-08-2019 11:25:00 19.6 C 90 % 17.91 C
139 06-08-2019 11:30:00 19.6 C 90 % 17.91 C
140 06-08-2019 11:35:00 19.7 C 89 % 17.84 C
141 06-08-2019 11:40:00 19.9 C 89 % 18.03 C
142 06-08-2019 11:45:00 20.1 C 89 % 18.23 C
143 06-08-2019 11:50:00 20.2 C 88 % 18.15 C
144 06-08-2019 11:55:00 20.4 C 88 % 18.34 C
145 06-08-2019 12:00:00 20.6 C 87 % 18.36 C
146 06-08-2019 12:05:00 20.7 C 86 % 18.27 C
147 06-08-2019 12:10:00 20.8 C 87 % 18.56 C
148 06-08-2019 12:15:00 21 C 84 % 18.19 C
149 06-08-2019 12:20:00 21.2 C 83 % 18.2 C
150 06-08-2019 12:25:00 21.3 C 82 % 18.1 C
Sensor: Nr:Datum:Temp:Feuchte:Taupunkt:
Aussen-T/F 151 06-08-2019 12:30:00 21.4 C 80 % 17.81 C
152 06-08-2019 12:35:00 21.6 C 80 % 18 C
153 06-08-2019 12:40:00 21.7 C 80 % 18.1 C
154 06-08-2019 12:45:00 21.8 C 80 % 18.2 C
155 06-08-2019 12:50:00 21.8 C 79 % 18 C
156 06-08-2019 12:55:00 21.9 C 79 % 18.09 C
157 06-08-2019 13:00:00 21.9 C 78 % 17.89 C
158 06-08-2019 13:05:00 22 C 78 % 17.99 C
159 06-08-2019 13:10:00 22.1 C 78 % 18.08 C
160 06-08-2019 13:15:00 22.2 C 79 % 18.38 C
161 06-08-2019 13:20:00 22.3 C 79 % 18.48 C
162 06-08-2019 13:25:00 22.3 C 78 % 18.28 C
163 06-08-2019 13:30:00 22.3 C 77 % 18.07 C
164 06-08-2019 13:35:00 22.3 C 79 % 18.48 C
165 06-08-2019 13:40:00 22.4 C 76 % 17.96 C
166 06-08-2019 13:45:00 22.6 C 77 % 18.36 C
167 06-08-2019 13:50:00 22.7 C 76 % 18.25 C
168 06-08-2019 13:55:00 22.8 C 74 % 17.92 C
169 06-08-2019 14:00:00 23.1 C 73 % 17.99 C
170 06-08-2019 14:05:00 23.2 C 72 % 17.87 C
171 06-08-2019 14:10:00 23.2 C 72 % 17.87 C
172 06-08-2019 14:15:00 23.3 C 71 % 17.75 C
173 06-08-2019 14:20:00 23.4 C 71 % 17.84 C
174 06-08-2019 14:25:00 23.5 C 69 % 17.48 C
175 06-08-2019 14:30:00 23.6 C 68 % 17.35 C
Sensor: Nr:Datum:Temp:Feuchte:Taupunkt:
Aussen-T/F 176 06-08-2019 14:35:00 23.7 C 70 % 17.9 C
177 06-08-2019 14:40:00 23.9 C 69 % 17.87 C
178 06-08-2019 14:45:00 24.1 C 68 % 17.82 C
179 06-08-2019 14:50:00 24.2 C 67 % 17.68 C
180 06-08-2019 14:55:00 24.2 C 68 % 17.92 C
181 06-08-2019 15:00:00 24.3 C 65 % 17.3 C
182 06-08-2019 15:05:00 24.4 C 65 % 17.39 C
183 06-08-2019 15:10:00 24.5 C 65 % 17.49 C
184 06-08-2019 15:15:00 24.4 C 67 % 17.87 C
185 06-08-2019 15:20:00 24.6 C 66 % 17.83 C
186 06-08-2019 15:25:00 24.8 C 66 % 18.01 C
187 06-08-2019 15:30:00 24.8 C 65 % 17.77 C
188 06-08-2019 15:35:00 24.9 C 65 % 17.87 C
189 06-08-2019 15:40:00 25 C 63 % 17.47 C
190 06-08-2019 15:45:00 25 C 63 % 17.47 C
191 06-08-2019 15:50:00 24.9 C 64 % 17.62 C
192 06-08-2019 15:55:00 25.1 C 63 % 17.56 C
193 06-08-2019 16:00:00 25.2 C 63 % 17.65 C
194 06-08-2019 16:05:00 25.2 C 63 % 17.65 C
195 06-08-2019 16:10:00 25.3 C 63 % 17.75 C
196 06-08-2019 16:15:00 25.4 C 62 % 17.59 C
197 06-08-2019 16:20:00 25.2 C 63 % 17.65 C
198 06-08-2019 16:25:00 25.3 C 62 % 17.5 C
199 06-08-2019 16:30:00 25.4 C 62 % 17.59 C
200 06-08-2019 16:35:00 25.4 C 62 % 17.59 C
Sensor: Nr:Datum:Temp:Feuchte:Taupunkt:
Aussen-T/F 201 06-08-2019 16:40:00 25.4 C 62 % 17.59 C
202 06-08-2019 16:45:00 25.4 C 61 % 17.33 C
203 06-08-2019 16:50:00 25.6 C 61 % 17.52 C
204 06-08-2019 16:55:00 25.9 C 59 % 17.27 C
205 06-08-2019 17:00:00 26.2 C 59 % 17.55 C
206 06-08-2019 17:05:00 26.4 C 58 % 17.47 C
207 06-08-2019 17:10:00 26.4 C 59 % 17.74 C
208 06-08-2019 17:15:00 26.6 C 57 % 17.38 C
209 06-08-2019 17:20:00 26.8 C 57 % 17.57 C
210 06-08-2019 17:25:00 26.8 C 57 % 17.57 C
211 06-08-2019 17:30:00 26.7 C 56 % 17.19 C
212 06-08-2019 17:35:00 26.4 C 55 % 16.63 C
213 06-08-2019 17:40:00 26.1 C 58 % 17.19 C
214 06-08-2019 17:45:00 26 C 58 % 17.1 C
215 06-08-2019 17:50:00 26.2 C 59 % 17.55 C
216 06-08-2019 17:55:00 26.2 C 57 % 17.01 C
217 06-08-2019 18:00:00 26.2 C 58 % 17.28 C
218 06-08-2019 18:05:00 26 C 58 % 17.1 C
219 06-08-2019 18:10:00 25.7 C 59 % 17.09 C
220 06-08-2019 18:15:00 25.4 C 60 % 17.07 C
221 06-08-2019 18:20:00 25.3 C 61 % 17.24 C
222 06-08-2019 18:25:00 25.2 C 60 % 16.88 C
223 06-08-2019 18:30:00 25.1 C 62 % 17.31 C
224 06-08-2019 18:35:00 24.9 C 61 % 16.86 C
225 06-08-2019 18:40:00 24.8 C 62 % 17.02 C
Sensor: Nr:Datum:Temp:Feuchte:Taupunkt:
Aussen-T/F 226 06-08-2019 18:45:00 24.7 C 65 % 17.68 C
227 06-08-2019 18:50:00 24.7 C 68 % 18.4 C
228 06-08-2019 18:55:00 24.5 C 68 % 18.2 C
229 06-08-2019 19:00:00 24.3 C 70 % 18.48 C
230 06-08-2019 19:05:00 23.9 C 70 % 18.09 C
231 06-08-2019 19:10:00 23.7 C 72 % 18.35 C
232 06-08-2019 19:15:00 23.4 C 73 % 18.28 C
233 06-08-2019 19:20:00 23.1 C 74 % 18.21 C
234 06-08-2019 19:25:00 22.8 C 75 % 18.14 C
235 06-08-2019 19:30:00 22.5 C 75 % 17.85 C
236 06-08-2019 19:35:00 22.3 C 77 % 18.07 C
237 06-08-2019 19:40:00 22 C 81 % 18.59 C
238 06-08-2019 19:45:00 21.4 C 82 % 18.2 C
239 06-08-2019 19:50:00 20.8 C 85 % 18.18 C
240 06-08-2019 19:55:00 20.3 C 87 % 18.06 C
241 06-08-2019 20:00:00 20 C 89 % 18.13 C
242 06-08-2019 20:05:00 19.8 C 89 % 17.93 C
243 06-08-2019 20:10:00 19.7 C 89 % 17.84 C
244 06-08-2019 20:15:00 19.4 C 90 % 17.72 C
245 06-08-2019 20:20:00 19.2 C 89 % 17.34 C
246 06-08-2019 20:25:00 19 C 90 % 17.32 C
247 06-08-2019 20:30:00 18.8 C 91 % 17.3 C
248 06-08-2019 20:35:00 18.7 C 91 % 17.2 C
249 06-08-2019 20:40:00 18.7 C 91 % 17.2 C
250 06-08-2019 20:45:00 18.6 C 92 % 17.27 C
Sensor: Nr:Datum:Temp:Feuchte:Taupunkt:
Aussen-T/F 251 06-08-2019 20:50:00 18.4 C 92 % 17.08 C
252 06-08-2019 20:55:00 18.3 C 92 % 16.98 C
253 06-08-2019 21:00:00 18.2 C 92 % 16.88 C
254 06-08-2019 21:05:00 18.2 C 93 % 17.05 C
255 06-08-2019 21:10:00 18.2 C 93 % 17.05 C
256 06-08-2019 21:15:00 18.1 C 93 % 16.95 C
257 06-08-2019 21:20:00 18.1 C 93 % 16.95 C
258 06-08-2019 21:25:00 18 C 93 % 16.85 C
259 06-08-2019 21:30:00 18 C 93 % 16.85 C
260 06-08-2019 21:35:00 18 C 93 % 16.85 C
261 06-08-2019 21:40:00 17.9 C 93 % 16.75 C
262 06-08-2019 21:45:00 17.9 C 94 % 16.92 C
263 06-08-2019 21:50:00 17.8 C 94 % 16.82 C
264 06-08-2019 21:55:00 17.7 C 94 % 16.72 C
265 06-08-2019 22:00:00 17.7 C 94 % 16.72 C
266 06-08-2019 22:05:00 17.7 C 94 % 16.72 C
267 06-08-2019 22:10:00 17.7 C 94 % 16.72 C
268 06-08-2019 22:15:00 17.6 C 94 % 16.62 C
269 06-08-2019 22:20:00 17.6 C 94 % 16.62 C
270 06-08-2019 22:25:00 17.6 C 94 % 16.62 C
271 06-08-2019 22:30:00 17.5 C 94 % 16.52 C
272 06-08-2019 22:35:00 17.4 C 94 % 16.42 C
273 06-08-2019 22:40:00 17.4 C 94 % 16.42 C
274 06-08-2019 22:45:00 17.4 C 94 % 16.42 C
275 06-08-2019 22:50:00 17.3 C 94 % 16.33 C
Sensor: Nr:Datum:Temp:Feuchte:Taupunkt:
Aussen-T/F 276 06-08-2019 22:55:00 17.3 C 94 % 16.33 C
277 06-08-2019 23:00:00 17.3 C 94 % 16.33 C
278 06-08-2019 23:05:00 17.2 C 95 % 16.39 C
279 06-08-2019 23:10:00 17.2 C 95 % 16.39 C
280 06-08-2019 23:15:00 17.2 C 95 % 16.39 C
281 06-08-2019 23:20:00 17.2 C 95 % 16.39 C
282 06-08-2019 23:25:00 17.1 C 95 % 16.29 C
283 06-08-2019 23:30:00 17.1 C 95 % 16.29 C
284 06-08-2019 23:35:00 17 C 95 % 16.19 C
285 06-08-2019 23:40:00 17 C 95 % 16.19 C
286 06-08-2019 23:45:00 16.9 C 95 % 16.09 C
287 06-08-2019 23:50:00 16.9 C 95 % 16.09 C
288 06-08-2019 23:55:00 16.9 C 95 % 16.09 C

Legende:
   Min
   Max


Maximal/Minimal-Werte vom 06.08.2019 - 06.08.2019

Sensor Min Max Avg
Temp
(Aussen-T/F)
16.3 °C
06-08-2019  06:00:00
26.8 °C
06-08-2019  17:20:00
19.98 °C
Feuchte
(Aussen-T/F)
55 %
06-08-2019  17:35:00
95 %
06-08-2019  23:05:00
80.01 %
Taupunkt
(Aussen-T/F)
13.71 C
06-08-2019  02:00:00
18.59 C
06-08-2019  19:40:00
16.2 C

Die Daten stammen von einer Davis Vantage Pro 2 Wetter-Station und werden unter Linux mit der Software wview2wettercgi und aufbereitet. Alle Angaben erfolgen ohne Gewähr für ihre Vollständigkeit oder Richtigkeit.
Kontakt: Rainer Krienke krienke@uni-koblenz.de . Meine Webseiten an der Uni Koblenz oder privat.
Version: $Revision: 0.78 $